Simultaneous Nadir Overpasses (SNOs) Predictions

Prediction of SNOs between METOP-B and TERRA Satellite Orbit:

Table of predicted SNOs for the next 14.0 days since TLE Epoch: 3/26/2022
Index Date (METOP-B) Time (METOP-B) Lat,Lon (METOP-B) SZA (METOP-B ) Date (TERRA) Time (TERRA) Lat,Lon (TERRA) SZA (TERRA ) Distance(km) Time Diff (sec)
1 03/27/2022 13:25:58 81.20, 20.63 80.60 03/27/2022 13:26:10 81.19, 20.47 80.58 2.88 12
2 03/27/2022 14:16:38 -81.21,-171.65 99.37 03/27/2022 14:15:36 -81.20,-171.63 99.40 0.56 62
3 03/30/2022 08:09:42 -81.18, -80.79 100.52 03/30/2022 08:10:53 -81.18, -80.78 100.49 0.22 71
4 03/30/2022 09:00:22 81.19, 86.76 79.49 03/30/2022 09:00:19 81.19, 86.91 79.51 2.60 3
5 04/02/2022 03:44:04 -81.19, -14.29 101.57 04/02/2022 03:45:01 -81.18, -14.41 101.57 2.23 57
6 04/02/2022 04:34:43 81.20, 153.64 78.49 04/02/2022 04:34:26 81.20, 153.62 78.48 0.44 17
7 04/04/2022 23:18:27 -81.19, 52.21 102.61 04/04/2022 23:19:09 -81.19, 52.23 102.59 0.57 42
8 04/05/2022 00:09:07 81.19,-140.25 77.41 04/05/2022 00:08:35 81.19,-140.13 77.40 2.01 32
9 04/07/2022 18:52:50 -81.19, 118.70 103.64 04/07/2022 18:53:17 -81.20, 118.78 103.61 1.67 27



Historial Predications of SNOs between METOP-B and TERRA
